www.pogodaiklimat.ru

ПОГОДА на Острове Сан-Клементе, CA

  • Прогноз погоды на Острове Сан-Клементе
  • Монитор погоды на Острове Сан-Клементе
  • Климат на Острове Сан-Клементе

АРХИВ ПОГОДЫ на Острове Сан-Клементе

Время (UTC), дата Ветер
(напр.,м/с)
 
Видим.   Явления Облачность Т
(С)
Тd
(С)
f
(%)
Тe
(С)
Тes
(С)
Комфортность

P
(гПа)

Po
(гПа)
Тmin
(С)
Tmax
(С)
R
(мм)
SD
(см)
15:28 23.03     н/о    8/8 390 м  +14.4  +12.2  87  +14  +15      1016.3         
15:41 23.03     н/о    5/5 390 м  +15.0  +12.8  87  +15  +18      1016.3         
15:56 23.03     н/о    2/2 390 м  +15.0  +12.8  87  +15  +20    1022.7  1016.3         
16:14 23.03     н/о    8/8 420 м  +14.4  +12.8  90  +14  +16      1016.3         
16:45 23.03     н/о    5/5 390 м  +15.0  +12.8  87  +15  +20      1016.3         
16:56 23.03     н/о    5/5 390 м  +15.0  +12.8  87  +15  +20    1022.6  1015.9  +11.7  +15.6     
17:56 23.03     н/о    5/5 360 м  +16.1  +13.3  83  +16  +24    1022.9  1016.3         
18:15 23.03 З  16 км    8/8 420 м
[верхняя] 
+17.8  +12.8  73  +18  +20      1016.6         
18:49 23.03 З  16 км    8/8 420 м
[верхняя] 
+16.1  +13.3  83  +15  +17      1016.3         
18:56 23.03 З  16 км    8/8 420 м
[верхняя] 
+16.7  +13.3  80  +16  +18    1022.6  1016.3         
19:56 23.03 З  16 км    8/8 420 м
[верхняя] 
+17.2  +13.3  78  +17  +19    1022.3  1015.9         
20:56 23.03 З  16 км    5/5 420 м
[верхняя] 
+16.7  +13.9  84  +16  +21    1021.7  1015.2         
21:56 23.03 З  16 км    8/5 300 м
[верхняя] 
+16.7  +13.9  84  +16  +19    1021.2  1014.9         
22:56 23.03 З  16 км    5/2 300 м
[верхняя] 
+15.6  +13.9  90  +15  +18    1020.9  1014.6  +15.0  +17.8     
23:54 23.03 З  16 км    8/8 360 м
[верхняя] 
+16.0  +13.0  82  +15  +16      1014.6         
23:56 23.03 З  16 км    8/8 360 м
[верхняя] 
+16.1  +13.3  83  +15  +16    1020.9  1014.6         
00:10 24.03 З  16 км    8/2 360 м
[верхняя] 
+16.1  +13.3  83  +15  +16      1014.6         
00:54 24.03 З  16 км    8/8 300 м
[верхняя] 
+16.0  +13.0  82  +15  +15      1014.9         
00:56 24.03 З  16 км    8/8 300 м
[верхняя] 
+15.6  +13.3  86  +15  +15    1021.4  1014.9         
01:16 24.03     н/о    5/5 360 м  +13.3  +12.2  93  +13  +13      1014.9         
01:45 24.03     н/о    8/8 360 м  +13.3  +12.2  93  +13  +13      1014.9         
01:56 24.03     н/о    8/8 360 м  +13.3  +12.2  93  +13  +13    1021.6  1015.2         
02:56 24.03     н/о    10/10 360 м  +13.3  +12.2  93  +13  +13    1021.8  1015.2         
03:56 24.03     н/о    10/10 330 м  +13.3  +12.2  93  +13  +13    1021.7  1015.2         
04:51 24.03     н/о    5/5 300 м  +12.0  +12.0  100  +11  +11      1015.2         
04:56 24.03     н/о    5/5 300 м  +12.2  +11.7  97  +12  +12    1021.6  1015.2  +12.2  +16.7     
05:05 24.03     н/о    8/8 360 м  +12.2  +11.7  97  +12  +12      1014.9         
05:37 24.03     н/о    5/5 390 м  +12.2  +11.1  93  +12  +12      1014.9         
05:54 24.03     н/о    8/8 420 м  +12.0  +11.0  94  +11  +11      1014.9         
05:56 24.03     н/о    8/8 420 м  +11.7  +11.1  96  +11  +11    1021.3  1014.9         
06:10 24.03     н/о    5/5 420 м  +11.7  +10.6  93  +11  +11      1014.9         
06:56 24.03     н/о    ясно  +11.7  +10.6  93  +11  +11    1021.2  1014.9         
07:56 24.03     н/о    ясно  +11.7  +10.6  93  +11  +11    1021.2  1014.6         
08:56 24.03     н/о    2/2 330 м  +11.7  +11.1  96  +11  +11    1021.3  1014.9         
09:56 24.03     н/о    2/2 330 м  +10.6  +10.0  96  +10  +10    1021.0  1014.6         
10:56 24.03     н/о    2/2 330 м  +10.0  +9.4  96  +9  +9    1020.7  1014.2  +10.0  +12.2     
11:27 24.03     н/о    8/8 330 м  +8.3  +8.3  100  +7  +7      1014.2         
11:56 24.03     н/о    2/2 330 м  +7.8  +7.8  100  +7  +7    1020.8  1014.2         
13:03 24.03     н/о    8/8 390 м  +8.9  +8.9  100  +8  +8      1015.2         
13:56 24.03     н/о    10/10 420 м  +11.7  +11.7  100  +11  +11    1022.4  1015.9         
14:56 24.03     н/о    8/8 390 м  +12.8  +12.2  96  +12  +13    1022.6  1016.3         
15:12 24.03     н/о    5/5 390 м  +13.3  +11.7  90  +13  +16      1016.3         
15:14 24.03 Ю  16 км    5/2 390 м
[верхняя] 
+13.3  +11.7  90  +11  +13      1016.3         
15:56 24.03 Ю  16 км    5/2 390 м
[верхняя] 
+14.4  +11.7  84  +13  +15    1023.0  1016.6         
16:56 24.03 ЮЗ  16 км    2/2 390 м
[верхняя] 
+15.0  +12.2  83  +14  +18    1023.2  1016.6  +7.8  +15.0     
17:56 24.03 ЮЗ  16 км    2/2 390 м
[верхняя] 
+17.2  +12.2  72  +17  +24    1022.9  1016.3         
18:56 24.03 ЮЗ  16 км    2/2 450 м
[верхняя] 
+18.3  +12.8  70  +19  +28    1022.8  1016.3         
19:56 24.03 ЮЗ  16 км    2/2 450 м
[верхняя] 
+17.2  +13.3  78  +17  +26    1022.3  1015.9         

 

Местоположение метеостанции San Clemente Island NALF: широта 33.0200 долгота -118.5900 высота над уровнем моря 55 м.

В архиве по умолчанию представлена погода на Острове Сан-Клементе за последние 1-2 суток. Обновление информации о фактической погоде в базе происходит ежечасно! Архивные данные за месяц целиком и за предыдущие месяцы Вы можете получить, выбрав интересующий диапазон дат из раскрывающегося списка и нажав кнопку "Ввод!".

Внимание! Архив погоды МЕТАР в базе сайта хранится не более 60 дней. Нет смысла пытаться выбрать более раннюю дату.

Внимание! Время в таблицах - всемирное. Для получения местного времени необходимо прибавить поправку, которая на Острове Сан-Клементе равна -8 ч.

Ветер - указаны скорость ветра в м/с и направление, откуда дует ветер: С - северный, СВ - северо-восточный, В - восточный, ЮВ - юго-восточный, Ю - южный, ЮЗ - юго-западный, З - западный, СЗ - северо-западный.
Видимость - горизонтальная дальность видимости в метрах или километрах. При видимости от 1 до 10 км при отсутствии осадков обычно наблюдается дымка, при ухудшении видимости до 1 км и менее - туман. В сухую погоду видимость может ухудшаться дымом, пылью или мглою.
Атмосферные явления - указаны явления, наблюдавшиеся в указанный момент времени.
Облачность - указаны через наклонную черту верхняя и нижняя облачность в баллах и высота нижней границы облаков в метрах. Внимание: облачность, как и прочие метеорологические величины в США измеряются автоматическими метеостанциями. Указанные значения в баллах носят условный характер и показывают процент времени, в течение которого, в среднем, лазерный луч высотомера отражался от облаков обратно.
T - Температура воздуха - температура, измеренная на высоте 2 м над землей.
Td - Температура точки росы - температура, при понижении до которой содержащийся в воздухе водяной пар достигнет насыщения.
f - Относительная влажность воздуха - влажноcть воздуха, измеренная на высоте 2 м над землей.
Te - Эффективная температура - температура, которую ощущает одетый по сезону человек в тени. Характеристика душности погоды. При расчете учитывается влияние влажности воздуха и скорости ветра на теплоощущения человека.
Tes - Эффективная температура на солнце - температура, которую ощущает человек, с поправкой на солнечный нагрев. Характеристика знойности погоды. Зависит от высоты солнца над горизонтом, облачности и скорости ветра. Ночью, в пасмурную погоду, а также при ветре 12 м/с и более поправка равна нулю.
P - Атмосферное давление - приведенное к уровню моря атмосферное давление.
Po - Атмосферное давление - измеренное на уровне метеостанции атмосферное давление.
Tmin - Минимальная температура - минимум температуры воздуха на высоте 2 м над землей.
Tmax - Максимальная температура - максимум температуры воздуха на высоте 2 м над землей.
R - Количество осадков - Количество выпавших осадков за 3 или 6 часов, мм.
SD - Снежный покров - Высота снежного покрова, см.